STARLINK-31701, 59582

Orbit data source: Space-Track

STARLINK-31701, 59582 is a payload satellite owned by SpaceX/Seattle (US) in LEO that was launched on Tue, 23 Apr 2024 UTC via an FALCON 9 launch vehicle from the Air Force Eastern Test Range (AFETR). Payload-class satellites include a variety of spacecraft equipped with specific instruments for various scientific and technological missions. These include communications satellites like Starlink; space stations such as the ISS; scientific satellites like the Hubble; Earth observation satellites from companies like Planet Labs, Umbra, and HawkEye 360; GPS; miniature CubeSats for education and research; and military/defense satellites.

Loading next visibility...
Identifier
59582, 2024-076U
Orbit
LEO
Country
Flag of USUS
Related business
Manufacturer
SpaceX/Seattle
Mission
Operational Commercial Communications
Bus & Motor
STARLINK V2M, Unknown motor
Mass
730 kg wet, ~700 kg dry
Launch date (UTC)
2024-04-23 (2 years ago)
Launch vehicle
FALCON 9
Launch site
Air Force Eastern Test Range (AFETR)
Object type
Payload
Rocket body
Debris
Shape & HBR
Box + 2 Pan, 17.7 m
Radar Cross Section
33.884 m², Large (>1 m²)

Expand to show TLE details & history
Last TLE update: 12 hours ago

TLE from 12 hours ago
0 STARLINK-31701
1 59582U 24076U   25340.58799813  .00049741  00000-0  17991-2 0  9996
2 59582  43.0025 174.8161 0001374 264.6396  95.4299 15.27686284 92170
Epoch: 2025-12-06T14:06Z
TLE epoch observation values (Epoch: 2025-12-06T14:06:43.038Z)
Latitude
-0.00001°
Longitude
-112.47683°
Altitude
482.596 km
Speed
7.626 km/s
True Right ascension
11h 39m 15s
True Declination
0° 00' 00"
Sunlit
Object was in daylight at epoch
Visualization orbit readout
Latitude
Unknown
Longitude
Unknown
Altitude
Unknown
Speed
Unknown
Apparent Right ascension
Unknown
Apparent Declination
Unknown
Sunlit
N/A
Visualization observer readout
Local Sidereal Time
00:06:45
Azimuth
Unknown
Elevation
Unknown
Doppler factor
Unknown
Orbital elements
Apogee altitude
485.619 km
Perigee altitude
483.733 km
Semi-major axis
6,862.813 km
Eccentricity
0.00014
Inclination
43.0025°
RAAN
174.8161°
Arg. of periapsis
264.6396°
True anomaly
95.44557°
Mean anomaly
95.4299°
Eccentric anomaly
95.43774°
Mean motion
3.8176 °/min
Orbital period
94.3 mins
BSTAR
0.0017991
Loading maneuver chart data...
Computing Atmospheric mass density...
Loading historical data...
Loading historical data...
Loading historical data...
Loading historical data...
Loading historical data...
Loading historical data...
Loading historical data...

Documentation

Showing up to 5 results
|